Baileyville, IL

11:35 AM CST on February 14, 2016 (GMT -0600)
Albertus

Weather History for KFEP - May, 2014

Change the Weather History Date:

Monday, May 19, 2014

  Actual Average Record
Temperature  
Mean Temperature 54 °F -  
Max Temperature 66 °F 73 °F 89 °F (1975)
Min Temperature 41 °F 52 °F 37 °F (2002)
Degree Days  
Heating Degree Days 12    
Growing Degree Days 4 (Base 50)    
Moisture  
Dew Point 45 °F    
Average Humidity 70    
Maximum Humidity 89    
Minimum Humidity 47    
Precipitation  
Precipitation 0.01 in - - ()
Sea Level Pressure  
Sea Level Pressure 30.07 in    
Wind  
Wind Speed 11 mph (SSE)    
Max Wind Speed 26 mph    
Max Gust Speed 33 mph    
Visibility 10 miles    
Events Rain    
Averages and records for this station are not official NWS values.
T = Trace of Precipitation, MM = Missing Value Source: NWS Daily Summary

Daily Weather History Graph

Daily Weather History Graph

Search for Another Location

Airport or City:

Trip Planner

Search our weather history database for the weather conditions in past years. The results will help you decide how hot, cold, wet, or windy it might be!

Date:

Astronomy

May. 19, 2014 Rise Set
Actual Time 5:33 AM CDT 8:16 PM CDT
Civil Twilight 5:00 AM CDT 8:49 PM CDT
Nautical Twilight 4:19 AM CDT 9:30 PM CDT
Astronomical Twilight 3:33 AM CDT 10:17 PM CDT
Moon 12:02 AM CDT (5/19) 10:32 AM CDT (5/19)
Length of Visible Light 15h 48m
Length of Day
14h 43m
Waning Gibbous, 71% of the Moon is Illuminated
May 19
Waning Gibbous
May 21
Last Quarter
May 28
New
Jun 5
First Quarter
Jun 12
Full

Hourly Weather History & Observations

Time (CDT) Temp. Windchill Dew Point Humidity Pressure Visibility Wind Dir Wind Speed Gust Speed Precip Events Conditions
12:15 AM 48.9 °F - 41.9 °F 77% 30.19 in 10.0 mi South 9.2 mph - N/A   Clear
12:35 AM 48.4 °F - 41.2 °F 76% 30.19 in 10.0 mi South 6.9 mph - N/A   Clear
12:55 AM 48.2 °F - 42.8 °F 82% 30.20 in 10.0 mi South 8.1 mph - N/A   Clear
1:15 AM 48.2 °F - 41.9 °F 79% 30.20 in 10.0 mi South 9.2 mph - N/A   Clear
1:35 AM 46.8 °F - 41.0 °F 80% 30.20 in 10.0 mi South 8.1 mph - N/A   Clear
1:55 AM 44.6 °F 40.2 °F 39.7 °F 83% 30.19 in 10.0 mi South 8.1 mph - N/A   Clear
2:15 AM 44.2 °F 39.7 °F 39.6 °F 84% 30.20 in 10.0 mi South 8.1 mph - N/A   Clear
2:35 AM 43.9 °F 39.9 °F 39.4 °F 84% 30.20 in 10.0 mi South 6.9 mph - N/A   Clear
2:55 AM 44.6 °F 40.7 °F 39.9 °F 84% 30.20 in 10.0 mi South 6.9 mph - N/A   Clear
3:15 AM 43.3 °F 39.2 °F 39.2 °F 85% 30.20 in 10.0 mi South 6.9 mph - N/A   Clear
3:35 AM 44.2 °F 41.0 °F 39.7 °F 84% 30.21 in 10.0 mi South 5.8 mph - N/A   Clear
3:55 AM 44.6 °F 40.7 °F 39.9 °F 84% 30.21 in 10.0 mi South 6.9 mph - N/A   Clear
4:35 AM 43.9 °F 41.3 °F 39.6 °F 85% 30.21 in 10.0 mi South 4.6 mph - N/A   Clear
4:55 AM 43.9 °F 40.5 °F 39.6 °F 85% 30.21 in 10.0 mi South 5.8 mph - N/A   Clear
5:15 AM 43.3 °F 41.7 °F 39.2 °F 85% 30.20 in 10.0 mi SSE 3.5 mph - N/A   Clear
5:35 AM 41.9 °F 40.0 °F 38.5 °F 88% 30.20 in 10.0 mi SE 3.5 mph - N/A   Clear
5:55 AM 41.7 °F - 38.5 °F 88% 30.20 in 10.0 mi Calm Calm - N/A   Clear
6:15 AM 43.9 °F 42.3 °F 40.5 °F 88% 30.19 in 10.0 mi ESE 3.5 mph - N/A   Clear
6:35 AM 45.7 °F 43.4 °F 42.1 °F 87% 30.19 in 10.0 mi SE 4.6 mph - N/A   Clear
6:55 AM 50.9 °F - 44.4 °F 78% 30.19 in 10.0 mi South 6.9 mph - N/A   Clear
7:15 AM 50.9 °F - 44.1 °F 77% 30.19 in 10.0 mi South 8.1 mph - N/A   Scattered Clouds
7:35 AM 50.9 °F - 45.9 °F 83% 30.19 in 10.0 mi South 10.4 mph - N/A Rain Light Rain
9:35 AM 50.9 °F - 47.8 °F 89% 30.18 in 10.0 mi SSE 11.5 mph - 0.01 in   Overcast
9:55 AM 50.9 °F - 47.5 °F 88% 30.18 in 10.0 mi SSE 9.2 mph - 0.01 in   Mostly Cloudy
10:15 AM 50.9 °F - 47.5 °F 88% 30.16 in 10.0 mi SSE 11.5 mph - N/A   Scattered Clouds
10:35 AM 51.6 °F - 47.8 °F 87% 30.16 in 10.0 mi SE 10.4 mph - N/A   Scattered Clouds
10:55 AM 53.2 °F - 49.1 °F 86% 30.16 in 10.0 mi SE 10.4 mph - N/A   Mostly Cloudy
11:15 AM 55.8 °F - 49.3 °F 79% 30.14 in 10.0 mi SE 15.0 mph 20.7 mph N/A   Mostly Cloudy
11:35 AM 58.3 °F - 49.6 °F 73% 30.14 in 10.0 mi SE 16.1 mph 23.0 mph N/A   Scattered Clouds
11:55 AM 57.7 °F - 48.4 °F 71% 30.13 in 10.0 mi SE 17.3 mph 21.9 mph N/A   Scattered Clouds
12:15 PM 58.3 °F - 48.2 °F 69% 30.11 in 10.0 mi SE 18.4 mph 25.3 mph N/A   Scattered Clouds
12:35 PM 58.3 °F - 47.7 °F 68% 30.11 in 10.0 mi SE 17.3 mph 23.0 mph N/A   Scattered Clouds
12:55 PM 60.6 °F - 49.1 °F 66% 30.10 in 10.0 mi SSE 16.1 mph 23.0 mph N/A   Scattered Clouds
1:15 PM 60.8 °F - 47.3 °F 61% 30.09 in 10.0 mi SSE 16.1 mph 26.5 mph N/A   Clear
1:35 PM 60.8 °F - 45.7 °F 57% 30.08 in 10.0 mi SSE 23.0 mph 28.8 mph N/A   Scattered Clouds
1:55 PM 60.8 °F - 45.0 °F 56% 30.07 in 10.0 mi SSE 24.2 mph 31.1 mph N/A   Scattered Clouds
2:15 PM 62.8 °F - 47.5 °F 57% 30.05 in 10.0 mi SSE 23.0 mph - N/A   Scattered Clouds
2:35 PM 62.4 °F - 44.6 °F 52% 30.03 in 10.0 mi SSE 25.3 mph 31.1 mph N/A   Clear
2:55 PM 62.6 °F - 44.6 °F 52% 30.01 in 10.0 mi SSE 23.0 mph 31.1 mph N/A   Clear
3:15 PM 63.3 °F - 44.4 °F 50% 29.96 in 10.0 mi SSE 26.5 mph 33.4 mph N/A   Clear
3:35 PM 63.9 °F - 43.5 °F 48% 29.97 in 10.0 mi SSE 26.5 mph 33.4 mph N/A   Clear
3:55 PM 65.3 °F - 45.0 °F 48% 29.97 in 10.0 mi SSE 21.9 mph 27.6 mph N/A   Clear
4:15 PM 66.2 °F - 45.1 °F 47% 29.96 in 10.0 mi SSE 26.5 mph 33.4 mph N/A   Clear
4:35 PM 66.2 °F - 45.9 °F 48% 29.95 in 10.0 mi SE 21.9 mph 27.6 mph N/A   Clear
4:55 PM 65.1 °F - 45.1 °F 48% 29.94 in 10.0 mi SSE 21.9 mph 32.2 mph N/A   Clear
5:15 PM 64.0 °F - 45.5 °F 51% 29.94 in 10.0 mi SSE 21.9 mph 31.1 mph N/A   Clear
5:55 PM 64.0 °F - 45.5 °F 51% 29.92 in 10.0 mi SSE 20.7 mph 27.6 mph N/A   Clear
6:15 PM 64.8 °F - 47.1 °F 53% 29.94 in 10.0 mi SE 15.0 mph 27.6 mph N/A   Scattered Clouds
6:35 PM 63.9 °F - 46.6 °F 53% 29.97 in 10.0 mi East 12.7 mph - N/A   Mostly Cloudy
6:55 PM 63.5 °F - 47.7 °F 56% 29.91 in 10.0 mi ESE 19.6 mph - N/A   Overcast
7:15 PM 63.0 °F - 46.9 °F 56% 29.90 in 10.0 mi ESE 18.4 mph - N/A   Overcast
7:35 PM 62.6 °F - 45.9 °F 54% 29.90 in 10.0 mi SE 17.3 mph - N/A   Overcast
7:55 PM 62.8 °F - 47.1 °F 57% 29.91 in 10.0 mi SE 13.8 mph - N/A   Overcast
8:15 PM 62.1 °F - 47.1 °F 58% 29.92 in 10.0 mi SE 11.5 mph - N/A   Overcast
8:35 PM 62.1 °F - 48.2 °F 60% 29.94 in 10.0 mi SE 8.1 mph - N/A   Overcast
8:55 PM 62.1 °F - 48.6 °F 61% 29.95 in 10.0 mi SE 10.4 mph - N/A   Overcast
9:15 PM 62.1 °F - 49.1 °F 62% 29.95 in 10.0 mi SE 12.7 mph - N/A   Overcast
9:35 PM 61.2 °F - 49.5 °F 65% 29.95 in 10.0 mi SE 12.7 mph - N/A   Overcast
9:55 PM 61.2 °F - 50.0 °F 67% 29.95 in 10.0 mi SE 12.7 mph - N/A   Overcast
10:15 PM 60.8 °F - 50.0 °F 68% 29.95 in 10.0 mi SE 13.8 mph - N/A   Overcast
10:35 PM 60.8 °F - 50.4 °F 68% 29.93 in 10.0 mi SE 13.8 mph - N/A   Overcast
10:55 PM 60.8 °F - 51.1 °F 70% 29.93 in 10.0 mi SE 13.8 mph 19.6 mph N/A   Overcast
11:15 PM 60.8 °F - 51.3 °F 71% 29.92 in 10.0 mi SE 12.7 mph - N/A   Overcast
11:35 PM 60.8 °F - 51.8 °F 72% 29.92 in 10.0 mi SE 12.7 mph - N/A   Overcast
11:55 PM 60.8 °F - 52.7 °F 75% 29.91 in 10.0 mi SE 12.7 mph - N/A   Overcast